C/2020 H2 ( Pruyne )

Japanese version
Home page
Updated on May 24, 2020

---------------------------------------------------------------------

* Profile

Discovery Date April 26, 2020
Magnitude 16.2 mag
Discoverer Theodore A. Pruyne (Catalina Sky Survey)

* Pictures

* Orbital Elements

Epoch 2020 Apr. 21.0 TT = JDT 2458960.5
T 2020 Apr. 27.59276 TT                                 Rudenko
q   0.8336270            (2000.0)            P               Q
z  +0.0048807      Peri.   26.69979     -0.13694471     -0.56815791
 +/-0.0004266      Node   277.63949     -0.99017300     +0.05507207
e   0.9959313      Incl.  125.04397     -0.02834742     +0.82107470
From 57 observations 2020 Apr. 26-May 21, mean residual 0".7.

* Finding Charts

* Magnitudes Graph

        m1 = 15.0 + 5 log d + 10.0 log r

---------------------------------------------------------------------

The orbital elements are published on M.P.E.C. 2020-K117.
The charts are made with StellaNavigator Ver.10 (AstroArts).
The magnitudes graphs are made with Comet for Windows.

---------------------------------------------------------------------

Copyright(C) Seiichi Yoshida (comet@aerith.net). All rights reserved.